Hourly Data Report for October 10, 2015

All times are specified in Local Standard Time (LST). Add 1 hour to adjust for Daylight Saving Time where and when it is observed.

FREDERICTON
NEW BRUNSWICK

45°52'08.000" N
66°32'14.000" W
20.70 m
8101505
71700
YFC

Download Data

Hourly Data (October 2015)
Hourly Data Report for October 10, 2015
Temp Definition
°C
Dew Point Temp Definition
°C
Rel Hum Definition
%
Wind Dir Definition
10's deg

Wind Spd Definition
km/h
Visibility Definition
km
Stn Press Definition
kPa
Hmdx Definition


Wind Chill Definition


Weather Definition


TIME
00:00 Legend Double Dagger 10.5 10.1 97 23 8 16.1 99.87     LegendNANA
01:00 Legend Double Dagger 10.5 8.9 90 28 18 16.1 99.94     LegendNANA
02:00 Legend Double Dagger 7.9 5.9 87 30 18 16.1 100.08     LegendNANA
03:00 Legend Double Dagger 6.7 4.1 83 30 35 16.1 100.19     LegendNANA
04:00 Legend Double Dagger 5.7 2.5 80 30 34 16.1 100.34     LegendNANA
05:00 Legend Double Dagger 5.2 2.2 81 29 13 16.1 100.49     LegendNANA
06:00 Legend Double Dagger 5.1 1.9 80 29 15 16.1 100.57     LegendNANA
07:00 Legend Double Dagger 4.7 1.3 79 29 17 16.1 100.67     LegendNANA
08:00 Legend Double Dagger 5.6 1.2 73 31 21 16.1 100.72     LegendNANA
09:00 Legend Double Dagger 6.7 -2.0 54 30 22 16.1 100.85     LegendNANA
10:00 Legend Double Dagger 6.1 -4.1 48 29 18 16.1 101.05     LegendNANA
11:00 Legend Double Dagger 6.8 -2.6 51 28 18 16.1 101.14     LegendNANA
12:00 Legend Double Dagger 7.7 -3.5 45 26 18 16.1 101.20     LegendNANA
13:00 Legend Double Dagger 8.4 -4.3 40 29 21 16.1 101.19     LegendNANA
14:00 Legend Double Dagger 8.5 -5.4 37 33 24 16.1 101.15     LegendNANA
15:00 Legend Double Dagger 9.1 -6.6 32 28 21 16.1 101.14     LegendNANA
16:00 Legend Double Dagger 8.9 -5.5 36 26 18 16.1 101.12     LegendNANA
17:00 Legend Double Dagger 7.9 -5.7 38 28 13 16.1 101.11     LegendNANA
18:00 Legend Double Dagger 5.4 -3.3 53 26 9 16.1 101.20     LegendNANA
19:00 Legend Double Dagger 2.8 -1.9 71 21 8 16.1 101.26     LegendNANA
20:00 Legend Double Dagger 1.2 -0.9 86 19 8 16.1 101.26     LegendNANA
21:00 Legend Double Dagger 0.1 -1.5 89 18 9 16.1 101.28     LegendNANA
22:00 Legend Double Dagger -0.4 -2.1 89 20 9 16.1 101.30   -4 LegendNANA
23:00 Legend Double Dagger -0.5 -1.9 90 19 13 16.1 101.29   -5 LegendNANA

Notes on Data Quality.

Legend

  • E = Estimated
  • M = Missing
  • NA = Not Available
  • ‡ = Partner data that is not subject to review by the National Climate Archives
Date modified: